Tracking 31032 objects as of 14-Jul-2025
HD Live streaming from Space Station
objects crossing your sky now

COSMOS 1867 COOLANT

Track COSMOS 1867 COOLANT now!
10-day predictions


NORAD ID: 39675
Int'l Code: 1987-060AN
Perigee: 774.0 km
Apogee: 796.4 km
Inclination: 65.0 °
Period: 100.4 minutes
Semi major axis: 7156 km
RCS: Unknown
Launch date: July 10, 1987
Source: Commonwealth of Independent States (former USSR) (CIS)
Launch site: TYURATAM MISSILE AND SPACE COMPLEX (TTMTR)

Note: This is SATELLITE DEBRIS
Your satellite tracking list
Your tracking list is empty




NASA's NSSDC Master Catalog

Two Line Element Set (TLE):
1 39675U 87060AN  25194.73498319  .00000151  00000-0  89898-4 0  9999
2 39675  65.0060 239.4318 0015650 260.7538  99.1778 14.34093939589319
Source of the keplerian elements: AFSPC